Voltar ao catálogo

DELTA 1 DEB

AtivoPO
NORAD 21599·DEBRIS·🇺🇸 United States

Lançado Jun 12, 1975 de Vandenberg Space Force Base

Loading…

Próximas Passagens (próximas 24 horas)

TLE

AtualizadoSource: Space-Track

Época: Sep 13, 2026, 23:28 UTC

1 21599U 75052HT  26256.97821083  .00000286  00000-0  10576-2 0  9991
2 21599  99.8256 143.5082 0438445 326.0593  44.8152 12.73216790630614

Acompanhe DELTA 1 DEB em tempo real com AllMySat

Download on the App Store